Regional Weather Roundup
Issued by NWS

Home | Current Version | Previous Version | Text Only | Print | Product List | Glossary Off
Versions: 1 2 3 4 5 6 7 8 9 10 11 12 13 14 15 16 17 18 19 20 21 22 23 24 25 26 27 28 29 30 31 32 33 34 35 36 37 38 39 40 41 42 43 44 45 46 47 48 49 50

000
ASUS43 KBIS 120410
RWRND

NORTH DAKOTA REGIONAL WEATHER ROUNDUP
NATIONAL WEATHER SERVICE BISMARCK ND
1100 PM CDT FRI JUL 11 2014

NOTE: "FAIR" INDICATES FEW OR NO CLOUDS BELOW 12,000 FEET WITH NO
SIGNIFICANT WEATHER AND/OR OBSTRUCTIONS TO VISIBILITY.


NDZ001>003-009>011-017-120500-
NORTHWEST NORTH DAKOTA

CITY           SKY/WX    TMP DP  RH WIND       PRES   REMARKS
WILLISTON      PTCLDY    62  52  69 N5        30.12R
MINOT          CLEAR     63  55  75 W5        30.09R
MINOT AFB      CLEAR     60  60  99 W7        30.09R
$$

NDZ018>021-031>035-040>046-120500-
SOUTHWEST NORTH DAKOTA

CITY           SKY/WX    TMP DP  RH WIND       PRES   REMARKS
BISMARCK       MOCLDY    71  58  63 N7        30.10R
DICKINSON      MOCLDY    63  57  81 E7        30.12R
GARRISON         N/A     63  58  83 N3        30.11R
HETTINGER ARPT CLOUDY    68  57  68 NE12      30.14R
$$

NDZ004>008-012>016-024-026-027-054-120500-
NORTHEAST NORTH DAKOTA

CITY           SKY/WX    TMP DP  RH WIND       PRES   REMARKS
GRAND FORKS    CLEAR     64  56  75 NW3       30.01R
GRND FRKS AFB  CLEAR     63  58  83 NW6       30.02R
DEVILS LAKE    CLEAR     64  55  72 NW8       30.05R
$$

NDZ022-023-025-028>030-036>039-047>053-120500-
SOUTHEAST NORTH DAKOTA

CITY           SKY/WX    TMP DP  RH WIND       PRES   REMARKS
FARGO          CLEAR     70  58  65 N8        30.01R
JAMESTOWN      MOCLDY    67  56  67 NW8       30.06R
$$




USA.gov is the U.S. government's official web portal to all federal, state and local government web resources and services.